Starlink 5149

operational
NORAD ID: 53981 Int'l Des: 2022-125 Owner: SPXS Country: US Constellation: starlink
LEOCIRCULAR

About Starlink 5149

Description loading...

Live Position

Loading 3D Globe...

Upcoming Passes

Altitude History

Altitude vs Time

uPlot chart will show altitude changes over time

Two-Line Element Set

1 53981U 22125T 25344.04906644 .00001784 00000-0 13014-3 0 9991
2 53981 53.2181 246.3096 0001328 99.1655 260.9487 15.08842801176071
Epoch: Dec 10, 2025 • Age: 18 hours

Current Status

Altitude 540.1 km
Velocity 7.59 km/s
Sub-Earth Point 6.64°N, 112.27°W
Launch Date Oct 5, 2022
Age 3.1 years
Type internet

Technical Details

Classification Payload
Mass 305.00 kg
Dry Mass 290.00 kg
Total Mass 305.00 kg
Length 0.20 m
Diameter 2.80 m
Span 9.00 m
Shape Box + pan
Manufacturer SPXS
Bus Type Starlink
Phase Status In Orbit
Owner/State SPXS/US

Large Constellations

Loading constellations...